Location: St. Louis
(38.6270°N, 90.1994°W)
Time: 00:32:56
(UTC-06:00)

BUGSAT 1 - Visible Passes

Search period start: 28 January 2022 00:00
Search period end: 07 February 2022 00:00
Orbit: 557 x 601 km, 98.1° (Epoch: 27 January)

Date Brightness Start Highest point End Pass type
(mag) Time Alt. Az. Time Alt. Az. Time Alt. Az.
28 Jan ? 05:14:04 10° NNE 05:18:04 82° ESE 05:22:03 10° S visible
29 Jan ? 05:18:41 10° NNE 05:22:41 87° WNW 05:26:40 10° SSW visible
29 Jan ? 17:44:09 10° WSW 17:45:28 11° W 17:46:47 10° WNW visible
30 Jan ? 05:23:18 10° N 05:27:17 77° WNW 05:31:16 10° SSW visible
31 Jan ? 05:27:56 10° N 05:31:54 67° WNW 05:35:51 10° SSW visible
01 Feb ? 05:32:34 10° N 05:36:30 59° WNW 05:40:25 10° SSW visible
02 Feb ? 04:04:50 10° E 04:05:34 10° E 04:06:17 10° ESE visible
02 Feb ? 05:37:13 10° N 05:41:07 52° WNW 05:44:59 10° SSW visible
03 Feb ? 04:08:41 10° ENE 04:10:13 12° E 04:11:45 10° ESE visible
03 Feb ? 05:41:53 10° N 05:45:42 45° WNW 05:49:31 10° SW visible
04 Feb ? 04:12:51 10° ENE 04:14:52 13° E 04:16:53 10° ESE visible
04 Feb ? 05:46:32 10° N 05:50:18 40° WNW 05:54:03 10° SW visible
05 Feb ? 04:17:07 10° ENE 04:19:31 15° E 04:21:54 10° SE visible
05 Feb ? 05:51:13 10° N 05:54:53 36° WNW 05:58:33 10° SW visible
06 Feb ? 04:21:29 10° NE 04:24:10 17° E 04:26:50 10° SE visible
06 Feb ? 05:55:55 10° N 05:59:29 32° WNW 06:03:02 10° SW visible
